INTELSAT 33E DEB, 62000

Orbit data source: Space-Track

INTELSAT 33E DEB, 62000 is space debris in GEO originally from a launch on Wed, 24 Aug 2016 UTC launched from the French Guiana (FRGUI). Debris objects in space refer to the collection of defunct objects orbiting the Earth. Examples of debris include non-operational satellites, rocket bodies, and fragments generated from explosions, collisions, or faulty payload assembly.

Not visible in the next 10 days
Identifier
62000, 2016-053S
Orbit
GEO
Country
Flag of USUS / ITSO
Related business
Manufacturer
Boeing/ES
Mission
Spacecraft
Bus & Motor
Unknown
Mass
Unknown
Launch date (UTC)
2016-08-24 (10 years ago)
Launch vehicle
Unknown
Launch site
French Guiana (FRGUI)
Object type
Payload
Rocket body
Debris
Shape & HBR
Unknown shape, 1.1 m
Radar Cross Section
RCS unknown

Expand to show TLE details & history
Last TLE update: 2 days ago

TLE from 2 days ago
0 INTELSAT 33E DEB
1 62000U 16053S   26165.11494454 -.00000269  00000-0  00000-0 0  9993
2 62000   1.6999  91.8961 0143322 316.9417  41.0712  1.00159010  6057
Epoch: 2026-06-14T02:45Z
TLE epoch observation values (Epoch: 2026-06-14T02:45:31.208Z)
Latitude
-0.00001°
Longitude
147.19759°
Altitude
35,362.538 km
Speed
3.107 km/s
True Right ascension
06h 03m 59s
True Declination
0° 00' 00"
Sunlit
Object was in daylight at epoch
Visualization orbit readout
Latitude
Unknown
Longitude
Unknown
Altitude
Unknown
Speed
Unknown
Apparent Right ascension
Unknown
Apparent Declination
Unknown
Sunlit
N/A
Visualization observer readout
Local Sidereal Time
05:21:11
Azimuth
Unknown
Elevation
Unknown
Doppler factor
Unknown
Orbital elements
Apogee altitude
36,424.09 km
Perigee altitude
35,214.526 km
Semi-major axis
42,197.445 km
Eccentricity
0.01433
Inclination
1.6999°
RAAN
91.8961°
Arg. of periapsis
316.9417°
True anomaly
42.16492°
Mean anomaly
41.0712°
Eccentric anomaly
41.61658°
Mean motion
0.25039 °/min
Orbital period
1,437.77 mins
BSTAR
0
Loading maneuver chart data...
Computing Atmospheric mass density...
Loading historical data...
Loading historical data...
Loading historical data...
Loading historical data...
Loading historical data...
Loading historical data...
Loading historical data...

Documentation

Showing up to 5 results
|